#timestamp,LO_Frequency,Hit 
1500706815.3,286047016.1,N
1500706835.1,286047016.5,N
1500706855.8,286047015.3,N
1500706875.7,286047012.7,N
1500706895.5,286047018.2,N
1500706915.3,286047023.1,N
1500706935.2,286047028.1,N
1500706955.0,286047028.0,N
1500706955.9,286047028.0,N
1500706975.7,286047026.6,N
1500706995.6,286047025.2,N
1500707015.4,286047019.7,N
1500707035.2,286047014.1,N
1500707055.1,286047014.3,N
1500707056.0,286047014.3,N
1500707075.8,286047013.1,N
1500707095.6,286047011.5,N
1500707115.5,286047010.9,N
1500707135.3,286047011.3,N
1500707155.1,286047014.0,N
1500707175.9,286047012.3,N
1500707195.7,286047017.1,N
1500707215.5,286047021.1,N
1500707235.4,286047026.7,N
1500707255.2,286047025.8,N
1500707275.0,286047026.8,N
1500707275.9,286047026.8,N
1500707295.8,286047020.2,N
1500707315.6,286047016.2,N
1500707335.4,286047018.8,N
1500707355.3,286047019.5,N
1500707375.1,286047015.8,N
1500707376.0,286047015.8,N
1500707395.8,286047016.2,N
1500707415.7,286047017.3,N
1500707435.5,286047016.6,N
1500707455.3,286047016.4,N
1500707475.1,286047013.6,N
1500707495.9,286047015.1,N
1500707515.7,286047015.1,N
1500707535.5,286047015.6,N
1500707555.4,286047015.2,N
1500707575.2,286047015.0,N
1500707595.0,286047015.5,N
1500707595.9,286047015.5,N
1500707615.8,286047009.1,N
1500707635.6,286047003.6,N
1500707655.4,286047007.5,N
1500707675.3,286047017.4,N
1500707695.1,286047018.8,N
1500707696.0,286047018.8,N
1500707715.8,286047015.5,N
1500707735.7,286047015.8,N
1500707755.5,286047035.0,N
1500707775.3,286047042.1,N
1500707795.2,286047063.0,N
1500707815.9,286047064.5,N
1500707835.7,286047066.7,N
1500707855.6,286047069.1,N
1500707875.4,286047067.8,N
1500707895.2,286047065.8,N
1500707915.0,286047070.3,N
1500707916.0,286047070.3,N
1500707935.8,286047071.4,N
1500707955.6,286047063.7,N
1500707975.4,286047070.3,N
1500707995.3,286047088.0,N
1500708015.1,286047088.7,Y
1500708035.9,286047049.9,N
1500708055.7,286047049.7,N
1500708075.5,286047049.2,N
1500708095.3,286047044.6,N
1500708115.2,286047050.3,N
1500708135.0,286047052.8,N
1500708135.9,286047052.8,N
1500708155.8,286047055.3,N
1500708175.6,286047053.4,N
1500708195.4,286047061.6,N
1500708215.2,286047073.6,N
1500708235.1,286047078.3,N
1500708236.0,286047078.3,N
1500708255.8,286047078.8,N
1500708275.7,286047088.5,Y
1500708295.5,286047040.8,N
1500708315.3,286047033.4,N
1500708335.2,286047031.8,N
1500708355.9,286047037.3,N
1500708375.7,286047042.1,N
1500708395.6,286047046.4,N
1500708415.4,286047043.9,N
1500708435.2,286047037.7,N
1500708455.0,286047032.7,N
1500708456.0,286047032.7,N
1500708475.8,286047031.2,N
1500708495.6,286047020.5,N
1500708515.4,286047012.1,N
1500708535.3,286047010.5,N
1500708555.1,286047003.4,N
1500708575.8,286046995.5,N
1500708595.7,286046994.8,N
1500708615.5,286046997.7,N
1500708635.3,286046997.9,N
1500708655.2,286046997.5,N
1500708675.0,286046991.4,N
1500708675.9,286046991.4,N
1500708695.7,286046989.7,N
1500708715.6,286046992.0,N
1500708735.4,286046983.9,N
1500708755.2,286046981.4,N
1500708775.1,286046976.1,N
1500708776.0,286046976.1,N
1500708795.8,286046974.1,N
1500708815.6,286046979.5,N
1500708835.5,286046984.7,N
1500708855.3,286046981.1,N
1500708875.1,286046983.6,N
1500708895.9,286046988.2,N
1500708915.7,286046983.1,N
1500708935.5,286046976.7,N
1500708955.4,286046979.1,N
1500708975.2,286046992.2,N
1500708995.0,286047003.1,N
1500708995.9,286047003.1,N
1500709015.8,286047017.2,N
1500709035.6,286047014.8,N
1500709055.4,286047011.5,N
1500709075.3,286047023.3,N
1500709095.1,286047035.0,N
1500709096.0,286047035.0,N
1500709115.8,286047033.7,N
1500709135.7,286047029.6,N
1500709155.5,286047020.5,N
1500709175.3,286047015.3,N
1500709195.1,286047011.6,N
1500709215.9,286047009.5,N
1500709235.7,286047008.5,N
1500709255.5,286047013.5,N
1500709275.4,286047016.5,N
1500709295.2,286047017.6,N
1500709315.0,286047015.1,N
1500709315.9,286047015.1,N
1500709335.8,286047011.7,N
1500709355.6,286047009.2,N
1500709375.4,286047001.2,N
1500709395.3,286046999.8,N
1500709415.1,286046999.9,N
1500709435.8,286046998.0,N
1500709455.7,286046995.4,N
1500709475.5,286046996.7,N
1500709495.3,286046996.7,N
1500709515.2,286046994.0,N
1500709535.9,286047000.9,N
1500709555.7,286046997.0,N
1500709575.6,286046992.5,N
1500709595.4,286046985.0,N
1500709615.2,286046986.5,N
1500709635.1,286046988.2,N
1500709636.0,286046988.2,N
1500709655.8,286046987.7,N
1500709675.6,286046984.1,N
1500709695.5,286046983.9,N
1500709715.3,286046984.8,N
1500709735.1,286046976.9,N
1500709755.9,286046975.0,N
1500709775.7,286046967.7,N
1500709795.5,286046970.8,N
1500709815.4,286046972.3,N
1500709835.2,286046983.2,N
1500709855.0,286046976.9,N
1500709855.9,286046976.9,N
1500709875.8,286046974.8,N
1500709895.6,286046984.2,N
1500709915.4,286046991.1,N
1500709935.3,286046991.0,N
1500709955.1,286046986.7,N
1500709956.0,286046986.7,N
1500709975.8,286046981.2,N
1500709995.7,286046974.3,N
1500710015.5,286046970.0,N
1500710035.3,286046971.9,N
1500710055.2,286046975.5,N
1500710075.9,286046983.7,N
1500710095.7,286046991.6,N
1500710115.6,286046987.5,N
1500710135.4,286046978.4,N
1500710155.2,286046973.5,N
1500710175.1,286046971.4,N
1500710176.0,286046971.4,N
1500710195.8,286046976.4,N
1500710215.6,286046980.8,N
1500710235.5,286046988.4,N
1500710255.3,286046986.4,N
1500710275.1,286046985.1,N
1500710295.9,286046986.2,N
1500710315.7,286046984.8,N
1500710335.5,286046982.6,N
1500710355.3,286046982.6,N
1500710375.2,286046980.6,N
1500710395.0,286046985.7,N
1500710395.9,286046985.7,N
